GALILEO B

Last updated on Mon Jan 12 2026 00:02:06 GMT+0000 (Coordinated Universal Time)

1 67161U 25302B 26011.42644868 -.00000033 00000+0 00000+0 0 9990 2 67161 54.2421 106.5099 0005083 260.1895 99.7577 1.72972425 450
UTC large
Height (km)
Speed (km/s)
/
Latitude / Longitude
Inclination (degrees)
Orbital Period (minutes)
Azimuth
Elevation
Range (km)
Doppler Factor

Next 0 passes for location: London (51.5072 / 0.1276)

Sorry there are no passes over London.
GALILEO B